Location: Northcutt
(34.7304°N, 84.4305°W)
Time: 16:55:35
(UTC+00:00)

SR - Pass Details

Date: 12 October 2022
Orbit: 577 x 874 km, 66.7° (Epoch: 05 December)

Event Time Altitude Azimuth Distance (km) Brightness Sun altitude
Rises 09:30:50 0° 332° (NNW) 3,239 - -27.5°
Reaches altitude 10° 09:33:19 10° 332° (NNW) 2,261 - -26.9°
Maximum altitude 09:38:28 82° 245° (WSW) 706 - -25.9°
Exits shadow 09:39:29 56° 167° (SSE) 817 ? -25.7°
Drops below altitude 10° 09:43:07 10° 158° (SSE) 2,054 ? -25.0°
Sets 09:45:18 0° 157° (SSE) 2,920 ? -24.5°
